H1 CPF 1 NER 2021 10 27 9 8001 glonass142 H2 2001801 9142 45358 2021 10 27 0 0 0 2021 10 30 23 45 0 900 1 1 0 0 0 H9 10 0 59514 0.00000 0 -22340874.151 4099457.409 -11564600.659 10 0 59514 900.00000 0 -20847724.030 3518651.790 -14233624.257 10 0 59514 1800.00000 0 -19131518.801 2673449.189 -16625493.690 10 0 59514 2700.00000 0 -17253898.246 1551422.101 -18693627.833 10 0 59514 3600.00000 0 -15279783.087 152669.850 -20397765.011 10 0 59514 4500.00000 0 -13274718.975 -1509929.821 -21704751.044 10 0 59514 5400.00000 0 -11302213.742 -3411013.990 -22589186.109 10 0 59514 6300.00000 0 -9421180.000 -5513561.256 -23033917.895 10 0 59514 7200.00000 0 -7683590.424 -7770217.823 -23030371.692 10 0 59514 8100.00000 0 -6132443.677 -10125067.844 -22578711.461 10 0 59514 9000.00000 0 -4800125.440 -12515774.255 -21687829.269 10 0 59514 9900.00000 0 -3707232.220 -14876000.620 -20375163.865 10 0 59514 10800.00000 0 -2861905.697 -17138012.952 -18666352.521 10 0 59514 11700.00000 0 -2259703.846 -19235352.937 -16594723.405 10 0 59514 12600.00000 0 -1884012.350 -21105471.031 -14200638.896 10 0 59514 13500.00000 0 -1706977.051 -22692209.773 -11530703.061 10 0 59514 14400.00000 0 -1690916.301 -23948034.001 -8636849.109 10 0 59514 15300.00000 0 -1790151.986 -24835915.347 -5575325.018 10 0 59514 16200.00000 0 -1953180.531 -25330792.992 -2405597.408 10 0 59514 17100.00000 0 -2125091.015 -25420550.552 810804.772 10 0 59514 18000.00000 0 -2250127.495 -25106469.214 4011483.929 10 0 59514 18900.00000 0 -2274286.707 -24403139.225 7134381.657 10 0 59514 19800.00000 0 -2147841.194 -23337834.607 10118977.365 10 0 59514 20700.00000 0 -1827681.336 -21949378.026 12907454.604 10 0 59514 21600.00000 0 -1279377.583 -20286543.862 15445813.007 10 0 59514 22500.00000 0 -478876.023 -18406066.679 17684905.029 10 0 59514 23400.00000 0 586244.035 -16370338.218 19581378.196 10 0 59514 24300.00000 0 1916003.572 -14244888.631 21098505.687 10 0 59514 25200.00000 0 3497781.214 -12095756.155 22206890.138 10 0 59514 26100.00000 0 5306605.497 -9986853.862 22885027.933 10 0 59514 27000.00000 0 7305971.159 -7977441.887 23119723.817 10 0 59514 27900.00000 0 9449147.078 -6119809.074 22906348.205 10 0 59514 28800.00000 0 11680923.111 -4457259.391 22248932.248 10 0 59514 29700.00000 0 13939725.065 -3022485.869 21160098.505 10 0 59514 30600.00000 0 16160011.663 -1836398.999 19660827.803 10 0 59514 31500.00000 0 18274855.289 -907458.000 17780065.786 10 0 59514 32400.00000 0 20218600.389 -231532.564 15554175.492 10 0 59514 33300.00000 0 21929489.575 207699.142 13026245.204 10 0 59514 34200.00000 0 23352148.117 437832.782 10245263.722 10 0 59514 35100.00000 0 24439822.911 496338.892 7265177.924 10 0 59514 36000.00000 0 25156281.600 428741.495 4143850.087 10 0 59514 36900.00000 0 25477291.295 286451.192 941934.854 10 0 59514 37800.00000 0 25391613.719 124344.675 -2278302.326 10 0 59514 38700.00000 0 24901473.744 -1806.244 -5454201.947 10 0 59514 39600.00000 0 24022480.527 -37946.248 -8523937.865 10 0 59514 40500.00000 0 22783003.666 65723.182 -11427730.523 10 0 59514 41400.00000 0 21223030.006 352383.931 -14109021.281 10 0 59514 42300.00000 0 19392548.985 856523.415 -16515583.761 10 0 59514 43200.00000 0 17349534.427 1602228.385 -18600549.627 10 0 59514 44100.00000 0 15157607.889 2601924.086 -20323328.028 10 0 59514 45000.00000 0 12883482.155 3855613.394 -21650400.236 10 0 59514 45900.00000 0 10594292.549 5350649.229 -22555973.791 10 0 59514 46800.00000 0 8354928.235 7062050.802 -23022483.477 10 0 59514 47700.00000 0 6225475.449 8953351.024 -23040929.593 10 0 59514 48600.00000 0 4258879.409 10977939.994 -22611047.405 10 0 59514 49500.00000 0 2498922.127 13080848.514 -21741305.002 10 0 59514 50400.00000 0 978599.788 15200896.957 -20448730.161 10 0 59514 51300.00000 0 -281033.819 17273119.591 -18758570.176 10 0 59514 52200.00000 0 -1271511.093 19231362.905 -16703791.785 10 0 59514 53100.00000 0 -1997056.573 21010949.183 -14324431.442 10 0 59514 54000.00000 0 -2474152.709 22551294.014 -11666809.037 10 0 59514 54900.00000 0 -2730585.828 23798368.388 -8782620.744 10 0 59514 55800.00000 0 -2804014.406 24706902.624 -5727929.104 10 0 59514 56700.00000 0 -2740121.822 25242240.371 -2562070.332 10 0 59514 57600.00000 0 -2590432.977 25381765.678 653499.616 10 0 59514 58500.00000 0 -2409888.132 25115844.068 3856397.492 10 0 59514 59400.00000 0 -2254277.215 24448239.073 6984520.442 10 0 59514 60300.00000 0 -2177643.428 23395987.579 9977245.628 10 0 59514 61200.00000 0 -2229765.896 21988739.854 12776598.605 10 0 59514 62100.00000 0 -2453827.539 20267592.489 15328368.383 10 0 59514 63000.00000 0 -2884366.288 18283463.067 17583148.240 10 0 59514 63900.00000 0 -3545595.783 16095074.458 19497282.930 10 0 59514 64800.00000 0 -4450166.161 13766632.451 21033705.022 10 0 59514 65700.00000 0 -5598417.195 11365292.511 22162645.155 10 0 59514 66600.00000 0 -6978155.682 8958520.161 22862203.342 10 0 59514 67500.00000 0 -8564967.359 6611453.425 23118771.063 10 0 59514 68400.00000 0 -10323051.675 4384375.589 22927296.364 10 0 59514 69300.00000 0 -12206546.137 2330402.001 22291386.922 10 0 59514 70200.00000 0 -14161286.808 493475.800 21223248.770 10 0 59514 71100.00000 0 -16126933.411 -1093245.096 19743461.131 10 0 59514 72000.00000 0 -18039372.070 -2408543.299 17880590.719 10 0 59514 72900.00000 0 -19833296.918 -3443791.890 15670651.714 10 0 59514 73800.00000 0 -21444863.865 -4203072.083 13156420.490 10 0 59514 74700.00000 0 -22814306.083 -4702753.705 10386617.115 10 0 59514 75600.00000 0 -23888401.827 -4970556.079 7414968.353 10 0 59514 76500.00000 0 -24622690.724 -5044128.759 4299169.510 10 0 59514 77400.00000 0 -24983344.566 -4969211.962 1099764.890 10 0 59514 78300.00000 0 -24948612.860 -4797454.668 -2121031.401 10 0 59514 79200.00000 0 -24509780.932 -4583983.151 -5300551.017 10 0 59514 80100.00000 0 -23671598.887 -4384823.706 -8376898.837 10 0 59514 81000.00000 0 -22452162.113 -4254289.826 -11290167.460 10 0 59514 81900.00000 0 -20882247.338 -4242445.900 -13983614.013 10 0 59514 82800.00000 0 -19004131.478 -4392756.312 -16404775.120 10 0 59514 83700.00000 0 -16869942.606 -4740021.015 -18506497.371 10 0 59514 84600.00000 0 -14539612.200 -5308686.414 -20247862.439 10 0 59514 85500.00000 0 -12078514.840 -6111604.207 -21594988.214 10 0 59515 0.00000 0 -9554894.743 -7149291.634 -22521690.132 10 0 59515 900.00000 0 -7037185.788 -8409725.794 -23009990.231 10 0 59515 1800.00000 0 -4591340.720 -9868679.845 -23050463.137 10 0 59515 2700.00000 0 -2278276.481 -11490589.209 -22642414.319 10 0 59515 3600.00000 0 -151545.358 -13229910.246 -21793886.331 10 0 59515 4500.00000 0 1744672.886 -15032914.891 -20521494.056 10 0 59515 5400.00000 0 3377175.004 -16839845.799 -18850092.615 10 0 59515 6300.00000 0 4724868.906 -18587341.537 -16812284.917 10 0 59515 7200.00000 0 5779393.266 -20211029.949 -14447778.971 10 0 59515 8100.00000 0 6545198.242 -21648180.903 -11802607.898 10 0 59515 9000.00000 0 7039086.152 -22840307.213 -8928228.223 10 0 59515 9900.00000 0 7289233.494 -23735604.728 -5880514.473 10 0 59515 10800.00000 0 7333737.562 -24291129.524 -2718669.951 10 0 59515 11700.00000 0 7218750.664 -24474621.263 495924.808 10 0 59515 12600.00000 0 6996282.051 -24265896.664 3700903.198 10 0 59515 13500.00000 0 6721761.468 -23657755.311 6834120.100 10 0 59515 14400.00000 0 6451467.860 -22656360.387 9834852.462 10 0 59515 15300.00000 0 6239932.059 -21281078.898 12644969.751 10 0 59515 16200.00000 0 6137423.042 -19563788.380 15210052.093 10 0 59515 17100.00000 0 6187623.549 -17547679.172 17480435.127 10 0 59515 18000.00000 0 6425592.708 -15285602.229 19412162.165 10 0 59515 18900.00000 0 6876101.069 -12838030.785 20967826.252 10 0 59515 19800.00000 0 7552407.927 -10270719.882 22117286.835 10 0 59515 20700.00000 0 8455532.379 -7652160.100 22838248.084 10 0 59515 21600.00000 0 9574049.220 -5050929.847 23116688.431 10 0 59515 22500.00000 0 10884419.136 -2533054.680 22947133.487 10 0 59515 23400.00000 0 12351840.633 -159481.877 22332767.116 10 0 59515 24300.00000 0 13931589.647 2016226.356 21285378.231 10 0 59515 25200.00000 0 15570792.565 3949886.430 19825143.626 10 0 59515 26100.00000 0 17210560.229 5608291.651 17980250.051 10 0 59515 27000.00000 0 18788395.249 6970349.381 15786361.585 10 0 59515 27900.00000 0 20240773.144 8027710.036 13285941.248 10 0 59515 28800.00000 0 21505789.942 8784861.751 10527438.715 10 0 59515 29700.00000 0 22525765.544 9258686.749 7564358.762 10 0 59515 30600.00000 0 23249693.287 9477498.067 4454227.617 10 0 59515 31500.00000 0 23635431.995 9479597.115 1257476.939 10 0 59515 32400.00000 0 23651547.141 9311413.114 -1963732.978 10 0 59515 33300.00000 0 23278722.181 9025303.405 -5146727.525 10 0 59515 34200.00000 0 22510679.010 8677108.281 -8229545.208 10 0 59515 35100.00000 0 21354567.271 8323564.815 -11152153.342 10 0 59515 36000.00000 0 19830804.700 8019690.340 -13857627.251 10 0 59515 36900.00000 0 17972374.143 7816247.712 -16293268.819 10 0 59515 37800.00000 0 15823606.032 7757401.036 -18411641.616 10 0 59515 38700.00000 0 13438496.958 7878662.391 -20171501.673 10 0 59515 39600.00000 0 10878634.754 8205217.552 -21538605.139 10 0 59515 40500.00000 0 8210817.076 8750702.426 -22486376.894 10 0 59515 41400.00000 0 5504463.159 9516482.591 -22996427.099 10 0 59515 42300.00000 0 2828927.183 10491466.775 -23058905.842 10 0 59515 43200.00000 0 250825.285 11652462.380 -22672689.404 10 0 59515 44100.00000 0 -2168512.487 12965058.147 -21845395.051 10 0 59515 45000.00000 0 -4375359.507 14384996.657 -20593224.593 10 0 59515 45900.00000 0 -6325583.521 15859978.790 -18940640.351 10 0 59515 46800.00000 0 -7986229.402 17331824.003 -16919880.349 10 0 59515 47700.00000 0 -9336629.199 18738895.345 -14570322.668 10 0 59515 48600.00000 0 -10368995.022 20018687.090 -11937711.814 10 0 59515 49500.00000 0 -11088472.027 21110466.071 -9073262.518 10 0 59515 50400.00000 0 -11512651.459 21957855.624 -6032658.885 10 0 59515 51300.00000 0 -11670566.358 22511253.615 -2874968.711 10 0 59515 52200.00000 0 -11601214.168 22729983.094 338505.613 10 0 59515 53100.00000 0 -11351670.156 22584085.494 3545416.954 10 0 59515 54000.00000 0 -10974872.542 22055681.436 6683580.804 10 0 59515 54900.00000 0 -10527173.659 21139842.344 9692176.768 10 0 59515 55800.00000 0 -10065761.084 19844936.808 12512921.052 10 0 59515 56700.00000 0 -9646057.512 18192437.293 15091187.656 10 0 59515 57600.00000 0 -9319208.790 16216195.193 17377057.227 10 0 59515 58500.00000 0 -9129765.604 13961214.411 19326274.112 10 0 59515 59400.00000 0 -9113655.863 11481974.039 20901094.093 10 0 59515 60300.00000 0 -9296532.571 8840369.031 22071007.430 10 0 59515 61200.00000 0 -9692566.265 6103353.367 22813324.123 10 0 59515 62100.00000 0 -10303732.755 3340382.177 23113610.858 10 0 59515 63000.00000 0 -11119626.402 620757.356 22965971.671 10 0 59515 63900.00000 0 -12117807.564 -1989014.714 22373166.970 10 0 59515 64800.00000 0 -13264670.770 -4427745.332 21346568.370 10 0 59515 65700.00000 0 -14516798.729 -6641862.235 19905949.501 10 0 59515 66600.00000 0 -15822746.956 -8587390.476 18079115.849 10 0 59515 67500.00000 0 -17125185.786 -10231533.878 15901379.558 10 0 59515 68400.00000 0 -18363311.279 -11553791.671 13414887.975 10 0 59515 69300.00000 0 -19475424.787 -12546563.868 10667817.663 10 0 59515 70200.00000 0 -20401573.334 -13215220.076 7713448.365 10 0 59515 71100.00000 0 -21086139.770 -13577628.824 4609133.973 10 0 59515 72000.00000 0 -21480273.074 -13663167.040 1415190.094 10 0 59515 72900.00000 0 -21544055.420 -13511251.468 -1806280.247 10 0 59515 73800.00000 0 -21248313.238 -13169454.221 -4992599.648 10 0 59515 74700.00000 0 -20575994.246 -12691282.500 -8081743.651 10 0 59515 75600.00000 0 -19523050.691 -12133717.190 -11013557.584 10 0 59515 76500.00000 0 -18098789.882 -11554615.391 -13730938.112 10 0 59515 77400.00000 0 -16325675.832 -11010087.996 -16180955.270 10 0 59515 78300.00000 0 -14238589.149 -10551964.517 -18315892.181 10 0 59515 79200.00000 0 -11883575.431 -10225453.559 -20094181.371 10 0 59515 80100.00000 0 -9316134.171 -10067098.954 -21481218.857 10 0 59515 81000.00000 0 -6599119.606 -10103118.712 -22450039.911 10 0 59515 81900.00000 0 -3800341.189 -10348197.545 -22981843.350 10 0 59515 82800.00000 0 -989964.039 -10804784.165 -23066354.360 10 0 59515 83700.00000 0 1762182.239 -11462923.053 -22702019.189 10 0 59515 84600.00000 0 4389274.307 -12300627.600 -21896028.441 10 0 59515 85500.00000 0 6830034.439 -13284778.538 -20664169.055 10 0 59516 0.00000 0 9031033.127 -14372509.269 -19030508.577 10 0 59516 900.00000 0 10948661.149 -15513019.853 -17026917.420 10 0 59516 1800.00000 0 12550687.161 -16649741.295 -14692441.230 10 0 59516 2700.00000 0 13817341.418 -17722760.470 -12072533.075 10 0 59516 3600.00000 0 14741879.185 -18671401.803 -9218162.934 10 0 59516 4500.00000 0 15330603.483 -19436857.249 -6184821.453 10 0 59516 5400.00000 0 15602348.171 -19964753.613 -3031437.852 10 0 59516 6300.00000 0 15587445.096 -20207549.119 180766.661 10 0 59516 7200.00000 0 15326220.590 -20126658.418 3389467.356 10 0 59516 8100.00000 0 14867086.147 -19694216.861 6532443.076 10 0 59516 9000.00000 0 14264304.966 -18894410.114 9548778.623 10 0 59516 9900.00000 0 13575529.120 -17724313.464 12380039.183 10 0 59516 10800.00000 0 12859211.473 -16194205.717 14971394.520 10 0 59516 11700.00000 0 12172001.286 -14327344.437 17272671.849 10 0 59516 12600.00000 0 11566232.725 -12159211.644 19239317.757 10 0 59516 13500.00000 0 11087611.319 -9736260.805 20833251.613 10 0 59516 14400.00000 0 10773194.896 -7114216.357 22023594.990 10 0 59516 15300.00000 0 10649753.132 -4355995.316 22787263.867 10 0 59516 16200.00000 0 10732574.133 -1529335.792 23109413.008 10 0 59516 17100.00000 0 11024767.950 1295770.884 22983724.374 10 0 59516 18000.00000 0 11517096.463 4049739.534 22412534.142 10 0 59516 18900.00000 0 12188337.408 6666033.459 21406795.593 10 0 59516 19800.00000 0 13006168.235 9083681.635 19985877.920 10 0 59516 20700.00000 0 13928533.957 11249567.432 18177203.880 10 0 59516 21600.00000 0 14905442.916 13120394.712 16015732.036 10 0 59516 22500.00000 0 15881116.303 14664250.031 13543292.250 10 0 59516 23400.00000 0 16796402.123 15861695.970 10807786.007 10 0 59516 24300.00000 0 17591352.696 16706349.965 7862265.899 10 0 59516 25200.00000 0 18207857.318 17204924.195 4763911.225 10 0 59516 26100.00000 0 18592218.781 17376724.632 1572919.184 10 0 59516 27000.00000 0 18697564.207 17252630.198 -1648666.919 10 0 59516 27900.00000 0 18485987.156 16873595.061 -4838169.325 10 0 59516 28800.00000 0 17930328.973 16288737.514 -7933503.019 10 0 59516 29700.00000 0 17015522.390 15553096.688 -10874393.638 10 0 59516 30600.00000 0 15739438.833 14725152.675 -13603561.309 10 0 59516 31500.00000 0 14113202.059 13864215.899 -16067846.157 10 0 59516 32400.00000 0 12160953.340 13027797.149 -18219252.573 10 0 59516 33300.00000 0 9919076.887 12269070.538 -20015891.096 10 0 59516 34200.00000 0 7434917.155 11634537.508 -21422798.936 10 0 59516 35100.00000 0 4765041.205 11161991.276 -22412622.894 10 0 59516 36000.00000 0 1973118.484 10878868.080 -22966151.384 10 0 59516 36900.00000 0 -872493.493 10801054.945 -23072685.384 10 0 59516 37800.00000 0 -3701356.880 10932204.063 -22730241.508 10 0 59516 38700.00000 0 -6443646.115 11263582.268 -21945583.744 10 0 59516 39600.00000 0 -9032813.355 11774461.343 -20734083.800 10 0 59516 40500.00000 0 -11408116.179 12433031.917 -19119413.319 10 0 59516 41400.00000 0 -13516903.009 13197801.652 -17133074.481 10 0 59516 42300.00000 0 -15316561.874 14019417.926 -14813778.643 10 0 59516 43200.00000 0 -16776052.592 14842837.472 -12206685.547 10 0 59516 44100.00000 0 -17876959.957 15609750.779 -9362518.289 10 0 59516 45000.00000 0 -18614025.628 16261158.535 -6336571.782 10 0 59516 45900.00000 0 -18995138.389 16739991.050 -3187634.287 10 0 59516 46800.00000 0 -19040785.188 16993659.989 23156.614 10 0 59516 47700.00000 0 -18782987.793 16976434.769 3233501.069 10 0 59516 48600.00000 0 -18263771.463 16651543.509 6381143.790 10 0 59516 49500.00000 0 -17533231.401 15992910.193 9405077.289 10 0 59516 50400.00000 0 -16647279.271 14986455.102 12246718.263 10 0 59516 51300.00000 0 -15665165.176 13630903.963 14851034.775 10 0 59516 52200.00000 0 -14646879.307 11938071.661 17167603.072 10 0 59516 53100.00000 0 -13650542.294 9932608.387 19151574.321 10 0 59516 54000.00000 0 -12729893.296 7651218.170 20764533.659 10 0 59516 54900.00000 0 -11931980.417 5141381.387 21975235.904 10 0 59516 55800.00000 0 -11295149.467 2459633.225 22760204.660 10 0 59516 56700.00000 0 -10847414.578 -330531.921 23104184.051 10 0 59516 57600.00000 0 -10605278.373 -3161044.874 23000434.859 10 0 59516 58500.00000 0 -10573050.827 -5961837.732 22450869.472 10 0 59516 59400.00000 0 -10742695.437 -8663506.574 21466022.802 10 0 59516 60300.00000 0 -11094209.585 -11199952.027 20064859.094 10 0 59516 61200.00000 0 -11596523.928 -13510889.396 18274417.358 10 0 59516 62100.00000 0 -12208884.011 -15544125.139 16129301.091 10 0 59516 63000.00000 0 -12882657.097 -17257505.657 13671020.753 10 0 59516 63900.00000 0 -13563489.190 -18620457.365 10947200.454 10 0 59516 64800.00000 0 -14193722.068 -19615053.755 8010663.034 10 0 59516 65700.00000 0 -14714968.791 -20236564.514 4918410.365 10 0 59516 66600.00000 0 -15070738.836 -20493463.269 1730518.225 10 0 59516 67500.00000 0 -15209001.343 -20406893.287 -1491032.916 10 0 59516 68400.00000 0 -15084577.060 -20009613.388 -4683568.152 10 0 59516 69300.00000 0 -14661256.403 -19344468.449 -7784945.151 10 0 59516 70200.00000 0 -13913552.351 -18462449.313 -10734773.088 10 0 59516 71100.00000 0 -12828012.246 -17420424.512 -13475598.734 10 0 59516 72000.00000 0 -11404031.270 -16278640.361 -15954035.342 10 0 59516 72900.00000 0 -9654131.602 -15098095.900 -18121811.383 10 0 59516 73800.00000 0 -7603693.944 -13937904.464 -19936717.892 10 0 59516 74700.00000 0 -5290151.594 -12852754.100 -21363435.300 10 0 59516 75600.00000 0 -2761679.929 -11890574.633 -22374223.442 10 0 59516 76500.00000 0 -75435.581 -11090510.109 -22949461.248 10 0 59516 77400.00000 0 2704581.376 -10481282.177 -23078025.807 10 0 59516 78300.00000 0 5509953.192 -10080013.007 -22757503.837 10 0 59516 79200.00000 0 8270457.159 -9891556.783 -21994231.928 10 0 59516 80100.00000 0 10916756.463 -9908367.012 -20803165.296 10 0 59516 81000.00000 0 13383057.363 -10110904.238 -19207578.179 10 0 59516 81900.00000 0 15609622.483 -10468565.769 -17238602.197 10 0 59516 82800.00000 0 17545036.051 -10941097.103 -14934612.169 10 0 59516 83700.00000 0 19148127.617 -11480424.373 -12340471.806 10 0 59516 84600.00000 0 20389475.180 -12032829.507 -9506654.339 10 0 59516 85500.00000 0 21252426.266 -12541375.450 -6488255.700 10 0 59517 0.00000 0 21733595.959 -12948478.375 -3343920.071 10 0 59517 900.00000 0 21842822.900 -13198518.010 -134697.346 10 0 59517 1800.00000 0 21602586.278 -13240375.118 3077140.679 10 0 59517 2700.00000 0 21046910.831 -13029789.659 6229307.894 10 0 59517 3600.00000 0 20219806.507 -12531439.663 9260707.579 10 0 59517 4500.00000 0 19173309.753 -11720653.515 12112610.651 10 0 59517 5400.00000 0 17965209.342 -10584683.644 14729785.772 10 0 59517 6300.00000 0 16656552.494 -9123487.921 17061560.084 10 0 59517 7200.00000 0 15309035.860 -7349985.807 19062790.781 10 0 59517 8100.00000 0 13982390.237 -5289777.858 20694729.772 10 0 59517 9000.00000 0 12731867.809 -2980339.400 21925765.736 10 0 59517 9900.00000 0 11605936.177 -469720.805 22732030.128 10 0 59517 10800.00000 0 10644274.642 2185193.143 23097856.293 10 0 59517 11700.00000 0 9876155.631 4920794.231 23016083.340 10 0 59517 12600.00000 0 9319278.311 7669146.317 22488199.028 10 0 59517 13500.00000 0 8979102.739 10360567.897 21524318.755 10 0 59517 14400.00000 0 8848712.370 12926296.339 20143000.357 10 0 59517 15300.00000 0 8909210.986 15301124.640 18370897.387 10 0 59517 16200.00000 0 9130637.890 17425902.347 16242256.323 10 0 59517 17100.00000 0 9473363.697 19249797.364 13798266.065 10 0 59517 18000.00000 0 9889908.726 20732224.655 11086271.013 10 0 59517 18900.00000 0 10327108.072 21844361.310 8158861.772 10 0 59517 19800.00000 0 10728532.354 22570184.268 5072860.177 10 0 59517 20700.00000 0 11037061.977 22906986.588 1888217.893 10 0 59517 21600.00000 0 11197505.603 22865350.069 -1333150.154 10 0 59517 22500.00000 0 11159151.198 22468574.826 -4528574.584 10 0 59517 23400.00000 0 10878140.429 21751589.478 -7635858.297 10 0 59517 24300.00000 0 10319564.302 20759387.867 -10594496.396 10 0 59517 25200.00000 0 9459189.587 19545058.393 -13346864.442 10 0 59517 26100.00000 0 8284741.187 18167489.624 -15839350.714 10 0 59517 27000.00000 0 6796684.482 16688849.635 -18023409.406 10 0 59517 27900.00000 0 5008472.949 15171946.142 -19856513.424 10 0 59517 28800.00000 0 2946249.286 13677579.514 -21302987.589 10 0 59517 29700.00000 0 648011.413 12262000.770 -22334705.693 10 0 59517 30600.00000 0 -1837722.530 10974581.949 -22931637.869 10 0 59517 31500.00000 0 -4453694.793 9855796.987 -23082237.735 10 0 59517 32400.00000 0 -7136060.199 8935597.686 -22783662.211 10 0 59517 33300.00000 0 -9816820.258 8232252.385 -22041820.190 10 0 59517 34200.00000 0 -12426437.750 7751695.218 -20871249.689 10 0 59517 35100.00000 0 -14896522.949 7487412.030 -19294826.393 10 0 59517 36000.00000 0 -17162479.814 7420866.319 -17343309.797 10 0 59517 36900.00000 0 -19166002.138 7522445.774 -15054736.273 10 0 59517 37800.00000 0 -20857316.192 7752887.998 -12473671.324 10 0 59517 38700.00000 0 -22197077.126 8065123.911 -9650335.970 10 0 59517 39600.00000 0 -23157840.884 8406459.795 -6639624.723 10 0 59517 40500.00000 0 -23725051.426 8721004.856 -3500034.649 10 0 59517 41400.00000 0 -23897503.345 8952240.947 -292526.636 10 0 59517 42300.00000 0 -23687261.990 9045625.444 2920658.579 10 0 59517 43200.00000 0 -23119045.968 8951116.956 6077206.484 10 0 59517 44100.00000 0 -22229099.269 8625517.214 9115933.530 10 0 59517 45000.00000 0 -21063601.468 8034530.303 11977967.231 10 0 59517 45900.00000 0 -19676683.483 7154452.561 14607879.175 10 0 59517 46800.00000 0 -18128132.504 5973421.987 16954749.630 10 0 59517 47700.00000 0 -16480882.251 4492174.504 18973143.899 10 0 59517 48600.00000 0 -14798393.243 2724274.924 20623982.541 10 0 59517 49500.00000 0 -13142031.880 695812.143 21875289.691 10 0 59517 50400.00000 0 -11568556.919 -1555429.804 22702805.932 10 0 59517 51300.00000 0 -10127817.194 -3981291.726 23090454.751 10 0 59517 52200.00000 0 -8860755.521 -6524997.154 23030654.110 10 0 59517 53100.00000 0 -7797801.161 -9123276.863 22524467.291 10 0 59517 54000.00000 0 -6957717.143 -11708773.788 21581589.913 10 0 59517 54900.00000 0 -6346950.109 -14212630.331 20220172.755 10 0 59517 55800.00000 0 -5959509.736 -16567152.182 18466482.863 10 0 59517 56700.00000 0 -5777382.887 -18708439.224 16354408.282 10 0 59517 57600.00000 0 -5771465.475 -20578874.933 13924814.591 10 0 59517 58500.00000 0 -5902973.396 -22129370.875 11224764.417 10 0 59517 59400.00000 0 -6125273.572 -23321272.601 8306613.813 10 0 59517 60300.00000 0 -6386058.267 -24127846.826 5227002.078 10 0 59517 61200.00000 0 -6629770.888 -24535286.865 2045754.127 10 0 59517 62100.00000 0 -6800180.436 -24543193.324 -1175283.408 10 0 59517 63000.00000 0 -6842994.927 -24164509.045 -4373449.487 10 0 59517 63900.00000 0 -6708402.041 -23424910.334 -7486495.129 10 0 59517 64800.00000 0 -6353427.967 -22361679.706 -10453804.270 10 0 59517 65700.00000 0 -5744012.847 -21022107.475 -13217584.176 10 0 59517 66600.00000 0 -4856713.238 -19461489.742 -15724000.995 10 0 59517 67500.00000 0 -3679957.756 -17740807.543 -17924237.341 10 0 59517 68400.00000 0 -2214801.176 -15924185.503 -19775450.459 10 0 59517 69300.00000 0 -475143.683 -14076237.626 -21241611.658 10 0 59517 70200.00000 0 1512595.234 -12259412.447 -22294210.375 10 0 59517 71100.00000 0 3710335.609 -10531449.506 -22912809.138 10 0 59517 72000.00000 0 6069693.185 -8943054.108 -23085438.774 10 0 59517 72900.00000 0 8533776.700 -7535887.742 -22808826.559 10 0 59517 73800.00000 0 11039351.445 -6340957.818 -22088453.378 10 0 59517 74700.00000 0 13519278.788 -5377473.364 -20938439.270 10 0 59517 75600.00000 0 15905129.972 -4652213.340 -19381260.175 10 0 59517 76500.00000 0 18129865.244 -4159432.502 -17447301.864 10 0 59517 77400.00000 0 20130466.607 -3881307.052 -15174260.265 10 0 59517 78300.00000 0 21850414.682 -3788899.501 -12606400.282 10 0 59517 79200.00000 0 23241906.729 -3843600.332 -9793687.944 10 0 59517 80100.00000 0 24267723.801 -3998984.082 -6790813.244 10 0 59517 81000.00000 0 24902669.866 -4203000.120 -3656123.036 10 0 59517 81900.00000 0 25134523.786 -4400404.447 -450485.100 10 0 59517 82800.00000 0 24964465.429 -4535329.003 2763894.179 10 0 59517 83700.00000 0 24406959.368 -4553879.334 5924675.362 10 0 59517 84600.00000 0 23489102.226 -4406650.652 8970591.336 10 0 59517 85500.00000 0 22249462.070 -4051055.972 11842629.159 99